User: anonymous   Login
Location: Bangkok
(13.7500°N, 100.5170°E)
Time: 12:22:51
(UTC+07:00)
Language:

Cosmos 1898 Rocket - Orbit

View from above orbital plane
View from above orbital plane
View from above satellite
View from above satellite

Ground track
Ground track

The orbit data is extracted from the following two-line orbital elements,

1 18586U 87098B   18174.47641053 +.00000022 +00000-0 +16571-4 0  9999
2 18586 074.0071 331.6212 0021854 299.4476 060.4496 14.36825897600387
Epoch (UTC): 23 June 2018 11:26:01
Eccentricity: 0.0021854
inclination: 74.0071°
perigee height: 753 km
apogee height: 784 km
right ascension of ascending node: 331.6212°
argument of perigee: 299.4476°
revolutions per day: 14.36825897
mean anomaly at epoch: 60.4496°
orbit number at epoch: 60038

The dashed part of the orbit path shows where the satellite is in the earth's shadow,  

DLR